SCP
0 0 0 0 0 0 0 0 0 0 0 0 0 0 0 0 0 0 0 0 0 0 0 0 0 0 0 0 0 0 0 0 0 0 0 0 0 0 0 0 0 0 0 0
0 0 0 0 0 0 0 0 0 0 0 0 0 0 0 0 0 0 0 0 0 0 0 0 0 0 0 0 0 0 0 0 0 0 0 0 0 0 0 0 0 0 0 0
0 0 0 0 0 0 0 0 0 0 0 0 0 0 0 0 0 0 0 0 0 0 0 0 0 0 0 0 0 0 0 0 0 0 0 0 0 0 0 0 0 0 0 0
0 0 0 0 0 0 0 0 0 0 0 0 0 0 0 0 0 0 0 0 0 0 0 0 0 0 0 0 0 0 0 0 0 0 0 0 0 0 0 0 0 0 0 0
0 0 0 0 0 0 0 0 0 0 0 0 0 0 0 0 0 0 0 0 0 0 0 0 0 0 0 0 0 0 0 0 0 0 0 0 0 0 0 0 0 0 0 0
0 0 0 0 0 0 0 0 0 0 0 0 0 0 0 0 0 0 0 0 0 0 0 0 0 0 0 0 0 0 0 0 0 0 0 0 0 0 0 0 0 0 0 0
0 0 0 0 0 0 0 0 0 0 0 0 0 0 0 0 0 0 0 0 0 0 0 0 0 0 0 0 0 0 0 0 0 0 0 0 0 0 0 0 0 0 0 0
0 0 0 0 0 0 0 0 0 0 0 0 0 0 0 0 0 0 0 0 0 0 0 0 0 1 1 0 0 0 0 0 0 0 0 0 0 0 0 0 0 0 0 0
0 0 0 0 0 0 0 0 0 0 0 0 0 0 0 0 0 0 0 0 0 0 0 0 0 1 1 0 0 0 0 0 0 0 0 0 0 0 0 0 0 0 0 0
0 0 0 0 0 0 0 0 0 0 0 0 0 0 0 0 0 0 0 0 0 0 0 0 0 0 0 0 0 0 0 0 0 0 0 0 0 0 0 0 0 0 0 0
0 0 0 0 0 0 0 0 0 0 0 0 0 0 0 0 0 0 0 0 0 0 0 0 0 0 0 0 0 0 0 0 0 0 0 0 0 0 0 0 0 0 0 0
0 0 0 0 0 0 0 0 0 0 0 0 0 0 0 0 0 0 0 0 0 0 0 0 0 0 0 0 0 0 0 0 0 0 0 0 0 0 0 0 0 0 0 0
0 0 0 0 0 0 0 0 0 0 0 0 0 0 0 0 0 0 0 0 0 0 0 0 0 0 0 0 0 0 0 0 0 0 0 0 0 0 0 0 0 0 0 0
0 0 0 0 0 0 0 0 0 0 0 0 0 0 0 0 0 0 0 0 0 0 0 0 0 0 0 0 0 0 0 0 0 0 0 0 0 0 0 0 0 0 0 0
0 0 0 0 0 0 0 0 0 0 0 0 0 0 0 0 0 0 0 0 0 0 0 0 0 0 0 0 0 0 0 0 0 0 0 0 0 0 0 0 0 0 0 0
0 0 0 0 0 0 0 0 0 0 0 0 0 0 0 0 0 0 0 0 0 0 0 0 0 0 0 0 0 0 0 0 0 0 0 0 0 0 0 0 0 0 0 0
0 0 0 0 0 0 0 0 0 0 0 0 0 0 0 0 0 0 0 0 0 0 0 0 0 0 0 0 0 0 0 0 0 0 0 0 0 0 0 0 0 0 0 0
0 0 0 0 0 0 0 0 0 0 0 0 0 0 0 0 0 0 0 0 0 0 0 0 0 0 0 0 0 0 0 0 0 0 0 0 0 0 0 0 0 0 0 0
0 0 0 0 0 0 0 0 0 0 0 0 0 0 0 0 0 0 0 0 0 0 0 0 0 0 0 0 0 0 0 0 0 0 0 0 0 0 0 0 0 0 0 0
0 0 0 0 0 0 0 0 0 0 0 0 0 0 0 0 0 0 0 0 0 0 0 0 0 0 0 0 0 0 0 0 0 0 0 0 0 0 0 0 0 0 0 0
0 0 0 0 0 0 0 0 0 0 0 0 0 0 0 0 0 0 0 0 0 0 0 0 0 0 0 0 0 0 0 0 0 0 0 0 0 0 0 0 0 0 0 0
0 0 0 0 0 0 0 0 0 0 0 0 0 0 0 0 0 0 0 0 0 0 0 0 0 0 0 0 0 0 0 0 0 0 0 0 0 0 0 0 0 0 0 0
0 0 0 0 0 0 0 0 0 0 0 0 0 0 0 0 0 0 0 0 0 0 0 0 0 0 0 0 0 0 0 0 0 0 0 0 0 0 0 0 0 0 0 0
0 0 0 0 0 0 0 0 0 0 0 0 0 0 0 0 0 0 0 0 0 0 0 0 0 0 0 0 0 0 0 0 0 0 0 0 0 0 0 0 0 0 0 0
0 0 0 0 0 0 0 0 0 0 0 0 0 0 0 0 0 0 0 0 0 0 0 0 0 0 0 0 0 0 0 0 0 0 0 0 0 0 0 0 0 0 0 0
0 0 0 0 0 0 0 0 0 0 0 0 0 0 0 0 0 0 0 0 0 0 0 0 0 0 0 0 0 0 0 0 0 0 0 0 0 0 0 0 0 0 0 0
0 0 0 0 0 0 0 0 0 0 0 0 0 0 0 0 0 0 0 0 0 0 0 0 0 0 0 0 0 0 0 0 0 0 0 0 0 0 0 0 0 0 0 0
Wind_Speed
4 4 3 4 5 6 6 6 6 6 5 8 5 4 4 4 4 5 5 6 7 7 7 6 6 6 6 5 5 6 5 5 5 4 4 3 3 3 3 3 4 4 4 3
2 1 2 3 5 6 6 5 5 4 7 7 3 2 3 4 6 6 6 7 7 7 7 7 7 6 6 6 6 6 6 6 4 4 4 4 4 3 3 3 3 3 3 3
2 3 1 4 5 7 5 5 7 7 8 3 1 3 5 6 6 7 7 7 7 8 8 8 8 7 7 7 6 6 6 5 5 5 5 5 4 4 4 3 3 3 3 3
1 2 3 8 3 5 5 4 6 6 5 4 4 3 2 4 6 6 6 6 7 7 7 6 6 6 6 5 6 6 6 5 5 5 5 5 4 4 4 3 3 3 3 4
4 2 5 7 3 4 4 4 5 6 4 2 2 2 2 2 5 6 6 5 6 6 6 5 6 6 6 6 5 6 6 6 6 6 6 5 5 5 4 3 3 3 3 4
4 3 5 8 3 2 4 4 4 5 5 4 5 2 4 2 3 3 3 3 3 4 4 5 5 6 7 6 6 7 7 7 6 6 7 7 6 5 3 3 4 4 3 3
5 4 8 8 3 4 4 8 4 5 6 7 6 5 3 2 2 3 3 3 4 5 4 5 5 7 7 6 7 7 5 5 5 6 6 6 5 4 4 3 3 3 3 2
5 4 9 4 4 7 8 3 3 4 5 6 4 2 2 2 2 3 3 3 4 4 3 3 5 7 6 6 5 4 5 5 5 5 5 4 5 4 4 4 4 3 2 2
9 8 6 3 5 4 3 3 3 4 4 5 4 2 2 2 2 2 2 3 3 4 3 3 4 6 7 5 4 5 5 5 4 4 4 4 5 5 3 3 3 3 3 3
3 6 5 4 4 3 3 3 2 3 4 5 5 3 3 2 2 2 2 2 3 4 3 2 3 4 4 3 5 6 5 4 4 4 3 3 3 4 4 4 4 4 4 4
4 5 4 4 3 2 1 2 3 3 3 5 5 4 3 3 2 2 2 2 3 3 3 2 2 2 2 4 6 5 5 4 4 3 4 3 3 3 5 5 6 6 5 5
7 7 6 5 3 2 3 3 4 4 3 3 4 4 3 3 2 2 2 2 2 2 2 2 2 2 2 4 5 6 4 4 3 3 3 3 2 1 2 3 5 7 6 6
5 3 4 3 1 2 3 3 3 4 5 4 2 3 4 3 2 2 2 3 3 3 2 2 2 2 2 3 5 5 5 4 3 3 3 3 3 3 1 2 2 4 5 6
3 3 2 2 2 2 2 3 4 4 3 4 3 3 3 3 3 3 2 3 3 2 2 2 2 1 1 3 4 4 4 4 4 3 3 3 3 3 3 2 2 2 3 5
4 5 5 2 2 3 3 4 5 4 3 3 3 3 4 4 3 2 2 2 3 3 2 2 1 1 1 3 4 4 3 3 3 3 3 3 2 2 2 2 2 2 2 3
3 3 4 4 4 3 4 4 4 3 3 3 3 3 3 3 3 2 2 3 4 3 2 2 1 1 2 3 3 3 3 3 3 3 2 2 2 2 2 2 2 2 2 3
6 5 5 4 4 4 4 4 5 4 4 3 3 3 4 4 4 3 2 1 2 2 2 2 2 1 2 3 3 3 2 3 4 3 2 2 2 2 2 2 2 3 3 3
7 7 7 7 6 6 4 4 4 4 4 4 4 4 4 4 3 2 1 2 3 2 1 0 0 1 1 2 2 2 2 2 3 3 2 2 2 2 2 2 2 2 2 3
5 6 5 5 6 5 5 4 4 4 4 5 5 4 3 3 3 2 3 3 3 1 1 1 2 2 1 1 2 2 3 2 2 2 2 2 1 1 1 2 2 2 2 2
4 5 5 5 4 5 5 4 5 4 4 4 5 4 4 2 2 3 3 2 1 2 1 0 1 1 1 1 2 2 3 3 3 2 2 2 2 2 1 2 2 2 2 2
4 5 6 6 5 5 5 5 5 5 4 4 5 5 4 3 3 3 3 1 2 1 0 1 1 1 1 1 2 2 2 2 2 2 2 2 2 2 2 2 2 2 2 2
4 5 6 6 6 5 3 4 5 5 4 4 4 4 4 3 2 2 1 1 1 0 1 0 0 0 1 2 2 2 2 2 2 2 2 2 2 2 2 2 2 2 2 2
4 5 6 6 6 5 4 4 4 4 4 4 4 4 4 3 2 2 1 1 1 0 1 0 0 1 1 2 2 2 2 2 2 2 2 2 2 2 2 2 2 2 2 2
5 5 5 5 6 6 5 3 3 3 3 3 3 3 4 3 1 0 1 1 0 1 1 0 1 1 2 1 1 1 1 1 1 1 2 2 2 2 2 2 2 2 2 3
5 5 6 6 5 4 3 3 4 4 4 3 2 2 1 2 2 1 1 1 1 2 1 1 2 2 1 1 1 1 1 1 1 1 1 1 1 2 2 2 2 2 2 3
4 4 4 4 3 3 3 3 3 2 3 2 1 1 1 1 1 1 1 1 1 2 1 1 1 1 1 1 1 0 0 0 0 0 1 1 1 1 1 2 2 2 2 3
4 4 3 3 2 2 3 3 3 2 2 3 2 1 1 1 1 1 2 1 1 1 1 1 1 1 1 0 0 0 0 0 0 1 1 1 1 1 1 2 2 2 2 3
Wind_Direction
224 228 193 214 209 184 186 192 199 237 244 264 263 240 215 181 162 157 170 179 185 187 190 191 192 192 190 189 179 172 169 177 191 187 176 165 164 167 162 161 166 163 159 163
287 250 212 240 232 202 209 205 215 249 269 258 257 195 175 171 169 179 193 196 194 192 191 193 195 194 190 188 182 172 178 189 183 167 163 168 170 161 158 163 158 152 164 168
266 310 46 278 234 197 202 203 185 213 239 259 231 205 200 189 184 194 199 199 194 194 197 199 197 190 190 188 173 173 182 181 173 170 170 176 169 158 167 173 163 167 181 179
144 67 239 248 252 191 195 230 212 223 238 227 215 213 202 185 187 199 198 192 194 195 198 198 188 185 178 163 166 175 179 179 176 173 173 168 160 170 179 170 171 180 189 193
130 186 277 292 263 177 176 258 217 209 232 209 143 86 338 217 191 197 198 193 193 190 185 179 177 172 158 160 166 174 184 189 187 180 175 169 175 185 182 170 178 186 187 188
133 163 233 251 254 173 122 278 243 191 195 172 131 114 261 239 187 188 177 172 168 157 148 158 170 158 157 167 175 194 199 195 188 182 180 183 187 182 172 172 186 183 190 197
161 202 254 252 247 126 156 239 229 183 180 168 181 195 210 171 155 158 155 152 147 144 156 172 161 154 165 176 200 207 191 177 176 181 185 184 179 173 166 164 162 172 192 214
153 187 251 246 149 177 212 221 181 178 174 174 183 164 141 132 126 122 120 121 137 144 159 158 154 159 173 200 208 172 160 166 176 179 181 175 168 171 165 162 166 184 196 231
185 208 235 228 215 236 200 193 197 181 178 158 150 150 142 135 128 120 120 127 137 143 144 145 163 170 186 205 163 151 156 171 176 171 176 168 167 170 166 169 177 192 197 219
224 260 256 256 249 254 206 202 190 166 153 148 147 145 138 134 128 121 115 128 131 129 136 162 181 183 188 164 151 152 164 173 169 167 172 170 171 174 176 183 191 197 205 220
231 264 289 280 237 227 182 146 122 115 136 149 139 140 148 146 148 148 135 131 134 144 159 181 177 182 169 153 152 156 163 166 167 170 171 177 185 196 197 205 200 200 210 208
214 218 197 234 239 183 156 160 151 132 116 119 138 147 138 144 154 150 146 136 129 138 154 168 160 172 174 166 160 156 158 166 170 170 172 174 177 217 245 231 228 223 219 214
210 200 191 222 236 174 163 160 145 135 141 138 131 138 136 137 144 138 136 141 159 168 169 162 154 172 188 170 162 163 169 172 170 170 171 175 178 183 229 296 267 240 237 234
202 149 176 206 206 176 142 127 112 100 103 122 127 123 123 117 118 133 162 182 170 147 138 140 140 192 206 164 157 164 167 171 167 176 176 179 186 192 195 202 249 280 270 252
215 194 189 169 127 112 116 114 108 104 101 95 109 123 129 129 142 171 180 153 127 116 123 127 133 230 175 153 156 164 164 169 169 166 169 175 178 180 188 200 221 255 284 284
181 153 148 147 153 146 132 133 136 147 137 125 121 130 139 136 132 119 117 132 130 147 172 159 195 229 163 154 157 163 173 173 157 157 158 161 166 176 194 207 222 240 252 259
160 175 175 175 181 173 170 168 167 166 152 147 149 133 118 108 98 89 83 119 143 165 175 174 211 208 157 159 160 165 163 170 161 152 167 179 184 195 205 209 224 241 255 257
188 189 181 175 174 172 170 164 160 157 156 155 135 126 126 128 134 142 130 96 88 66 30 296 152 122 141 162 163 158 158 164 170 173 176 181 194 202 203 212 226 243 275 281
176 173 170 168 167 163 163 164 163 154 143 136 134 137 138 136 139 135 118 106 108 110 297 320 83 105 141 173 145 146 149 151 153 163 167 179 184 198 213 221 238 251 258 269
166 161 157 150 144 145 150 149 143 135 134 133 127 119 114 115 119 117 111 117 193 215 229 145 118 132 154 156 131 143 150 155 161 164 161 171 189 209 223 232 240 253 260 262
156 153 145 141 136 133 138 141 137 134 132 131 134 139 139 130 120 120 116 108 297 295 127 99 108 147 150 135 131 139 149 157 164 171 178 186 197 211 222 234 248 257 260 265
135 135 135 133 128 121 118 122 127 127 122 120 123 127 123 116 107 93 107 193 233 293 42 116 157 161 125 105 131 141 149 159 173 180 187 195 205 219 230 239 248 258 262 265
129 127 126 128 129 122 105 106 118 125 127 132 137 139 139 145 147 141 201 265 209 94 47 196 270 52 69 95 132 147 160 175 192 199 203 207 215 224 234 242 251 259 263 267
120 119 119 117 112 109 108 106 108 113 117 119 129 139 138 127 87 309 182 200 29 33 46 270 10 44 59 105 132 145 170 196 210 211 212 220 228 236 242 246 258 267 268 274
120 116 115 117 117 121 126 117 103 101 99 93 90 100 122 144 159 188 171 158 118 57 40 18 33 33 60 117 135 163 197 215 218 215 213 224 240 250 252 251 252 263 270 274
120 122 125 127 129 131 130 124 120 122 119 110 83 68 72 80 113 125 125 122 114 68 49 31 32 39 66 99 115 135 174 258 288 266 235 237 246 257 264 270 277 276 276 278
101 99 96 87 86 113 122 124 131 143 149 145 141 137 117 108 105 107 104 98 91 79 61 37 40 54 63 72 74 50 359 319 295 277 265 266 271 271 271 278 285 289 292 293